"Pseudo-MPEC" for P21CnH5

Created 2022 Dec 21 21:22:18 UT using Find_Orb

Click here for an explanation of pseudo-MPECs

 
 Astrometry: 
     P21CnH5* C2022 12 01BxRtI(*)LprdIiBV)?\ME)X-yS4,qBNoNrV,AstrometryV(WNlYF52
     P21CnH5  C2022 12 01Q6!-?tDF?M$ML2a2)redacted;]:S1=%clickB#[hereJZcqm;-nF52
     P21CnH5  C2022 12 01B'bM_iSq*?!hZ.SforQ3u.Ii2q\explanation'$+*^M*ei2K2?BF52

Station data:
(F52) Pan-STARRS 2, Haleakala  (N20.707382 W156.255910)  US/Hawaii.
   Observers J. Bulger, T. Dukes, T. Lowe, A. Schultz, M. Willman. Measurers
   K. Chambers, S. Chastel, T. de Boer, L. Denneau, J. Fairlamb, H.
   Flewelling, M. Huber, C.-C. Lin, E. Magnier, Y. Ramanjooloo, R. Wainscoat,
   R. Weryk. 1.8-m Ritchey-Chrétien + CCD.

Orbital elements:  P21CnH5
   Perihelion 2022 Nov 22.32659 +/- 2845 TT =  7:50:17 (JD 2459905.82659)
Epoch 2022 Dec  1.0 TT = JDT 2459914.5   Earth MOID: 0.5242   Ju: 0.9979
M   1.69331637 +/- 60               Ma: 0.0068                   AutoNEOCP
n   0.19523067 +/- 0.113            Peri.   84.86672 +/- 90
a   2.94286734 +/- 1.14             Node   336.89807 +/- 37
e   0.4864742 +/- 0.219             Incl.    0.94459 +/- 54
P   5.05                   H 22.58  G  0.15   U 11.6  SR
q 1.51123816 +/- 4.87    Q 4.37449651 +/- 182             (J2000 ecliptic)
From 3 observations 2022 Dec. 1 (52.9 min); mean residual 0".06
Residuals in arcseconds: 
221201 F52  .03+  .02-    221201 F52  .08-  .07+    221201 F52  .06+  .05-    

Ephemerides (geocentric):
Date (UTC) HH   RA             Dec           delta  r     elong  mag " sig PA
---- --------  ------------   ------------  ------ ------ -----  --- --------
2022 12 21 21  04 12 15.539   +23 34 49.65  .58753 1.5383 155.7 23.3 9666 178
2022 12 21 22  04 12 16.340   +23 34 48.25  .58772 1.5384 155.6 23.3 9748 178
2022 12 21 23  04 12 17.144   +23 34 46.86  .58791 1.5385 155.6 23.3 9831 178
2022 12 22 00  04 12 17.952   +23 34 45.47  .58810 1.5386 155.6 23.3 9914 178
2022 12 22 01  04 12 18.763   +23 34 44.08  .58829 1.5386 155.5 23.3 9999 178
2022 12 22 02  04 12 19.578   +23 34 42.70  .58848 1.5387 155.5 23.3 168' 178
2022 12 22 03  04 12 20.397   +23 34 41.33  .58868 1.5388 155.4 23.3 170' 178
2022 12 22 04  04 12 21.219   +23 34 39.96  .58887 1.5389 155.4 23.3 171' 178
2022 12 22 05  04 12 22.045   +23 34 38.60  .58906 1.5389 155.4 23.3 172' 178
2022 12 22 06  04 12 22.874   +23 34 37.25  .58925 1.5390 155.3 23.3 174' 178
2022 12 22 07  04 12 23.707   +23 34 35.90  .58945 1.5391 155.3 23.3 175' 178
2022 12 22 08  04 12 24.544   +23 34 34.55  .58964 1.5392 155.3 23.3 177' 179
2022 12 22 09  04 12 25.384   +23 34 33.22  .58983 1.5392 155.2 23.3 179' 179
2022 12 22 10  04 12 26.228   +23 34 31.88  .59003 1.5393 155.2 23.3 180' 179
2022 12 22 11  04 12 27.075   +23 34 30.56  .59022 1.5394 155.1 23.3 182' 179
2022 12 22 12  04 12 27.927   +23 34 29.24  .59042 1.5395 155.1 23.3 183' 179
2022 12 22 13  04 12 28.781   +23 34 27.92  .59061 1.5396 155.1 23.3 185' 179
2022 12 22 14  04 12 29.640   +23 34 26.61  .59081 1.5396 155.0 23.3 187' 179
2022 12 22 15  04 12 30.502   +23 34 25.31  .59100 1.5397 155.0 23.3 188' 179
2022 12 22 16  04 12 31.368   +23 34 24.01  .59120 1.5398 154.9 23.3 190' 179
2022 12 22 17  04 12 32.237   +23 34 22.72  .59139 1.5399 154.9 23.3 192' 179
2022 12 22 18  04 12 33.110   +23 34 21.44  .59159 1.5399 154.9 23.3 193' 179
2022 12 22 19  04 12 33.986   +23 34 20.16  .59179 1.5400 154.8 23.3 195' 179
2022 12 22 20  04 12 34.867   +23 34 18.88  .59198 1.5401 154.8 23.3 197' 179
2022 12 22 21  04 12 35.751   +23 34 17.62  .59218 1.5402 154.7 23.3 199' 179
2022 12 22 22  04 12 36.638   +23 34 16.35  .59238 1.5403 154.7 23.3 201' 179
2022 12 22 23  04 12 37.529   +23 34 15.10  .59258 1.5403 154.7 23.3 202'   0
2022 12 23 00  04 12 38.424   +23 34 13.85  .59277 1.5404 154.6 23.3 204'   0
2022 12 23 01  04 12 39.323   +23 34 12.61  .59297 1.5405 154.6 23.3 206'   0
2022 12 23 02  04 12 40.225   +23 34 11.37  .59317 1.5406 154.5 23.3 208'   0
2022 12 23 03  04 12 41.131   +23 34 10.14  .59337 1.5406 154.5 23.3 210'   0
2022 12 23 04  04 12 42.041   +23 34 08.91  .59357 1.5407 154.5 23.3 212'   0
2022 12 23 05  04 12 42.954   +23 34 07.69  .59377 1.5408 154.4 23.3 214'   0
2022 12 23 06  04 12 43.871   +23 34 06.48  .59397 1.5409 154.4 23.3 216'   0
2022 12 23 07  04 12 44.791   +23 34 05.27  .59417 1.5410 154.4 23.3 218'   0
2022 12 23 08  04 12 45.716   +23 34 04.07  .59437 1.5410 154.3 23.3 220'   0
2022 12 23 09  04 12 46.644   +23 34 02.88  .59457 1.5411 154.3 23.3 222'   0
2022 12 23 10  04 12 47.575   +23 34 01.69  .59477 1.5412 154.2 23.3 224'   0
2022 12 23 11  04 12 48.511   +23 34 00.51  .59497 1.5413 154.2 23.3 227'   0
2022 12 23 12  04 12 49.450   +23 33 59.33  .59517 1.5414 154.2 23.3 229'   1
2022 12 23 13  04 12 50.392   +23 33 58.16  .59537 1.5414 154.1 23.3 231'   1
2022 12 23 14  04 12 51.339   +23 33 57.00  .59558 1.5415 154.1 23.3 233'   1
2022 12 23 15  04 12 52.289   +23 33 55.84  .59578 1.5416 154.0 23.3 235'   1
2022 12 23 16  04 12 53.243   +23 33 54.69  .59598 1.5417 154.0 23.3 238'   1
2022 12 23 17  04 12 54.200   +23 33 53.54  .59618 1.5417 154.0 23.3 240'   1
2022 12 23 18  04 12 55.161   +23 33 52.41  .59639 1.5418 153.9 23.3 242'   1
2022 12 23 19  04 12 56.126   +23 33 51.27  .59659 1.5419 153.9 23.3 245'   1
2022 12 23 20  04 12 57.095   +23 33 50.15  .59679 1.5420 153.9 23.3 247'   1